Weather in Chegdomyn

Russia / Khabarovsk Krai     51°08′01″N   133°02′10″E
temp.,
°C
wind,
m/s
gust,
m/s
humid.,
%
clouds,
%
prec.,
mm/h
press.,
hPa
HPBL,
m
27 february, sat
sat2701:00−23e119818 0.0 103420
04:00−25e119934 0.0 103420
07:00−25ne119893 0.0 103220
10:00−20ne119394 0.0 1030115
13:00−13n0181100 0.0 1025296
16:00−11nnw1287100 0.1 1019207
19:00−12wnw1194100 0.0 101721
22:00−12s2997100 0.6 1015563
28 february, sun
sun2801:00−12ssw2996100 1.3 1013552
04:00−13ssw2896100 1.6 1013358
07:00−14ssw2795100 0.1 1016256
10:00−14wsw598081 0.1 1018516
13:00−14w57730 0.0 1020802
16:00−14wsw57691 0.0 10211015
19:00−19wsw388458 0.1 1025245
22:00−26sw119161 0.1 102820
1 march, mon
mon101:00−27se129454 0.0 102919
04:00−28ese009475 0.0 103219
07:00−30sse119898 0.0 103319
10:00−25ssw239382 0.0 1033233
13:00−21sw247621 0.0 1032761
16:00−18w476242 0.0 10311760
19:00−24w388132 0.0 1032178
22:00−28sw128917 0.0 103419
2 march, tue
tue201:00−30sse129447 0.0 103419
04:00−31s129663 0.0 103519
07:00−33se119953 0.0 103619
10:00−27ssw119145 0.0 1034217
13:00−21sw128166 0.0 1032490
16:00−18ssw127033 0.0 1030736
19:00−23se128478 0.0 103120
22:00−26ese128239 0.0 103219
3 march, wed
wed301:00−25ene128660 0.0 103119
04:00−25nne119980 0.1 102920
07:00−23n1199100 0.3 102623
10:00−19nnw1195100 0.7 1023151
13:00−14sw1389100 0.5 1019382
16:00−12ssw5985100 0.9 10151044
19:00−15s2886100 0.1 1013271
22:00−15sse2991100 0.1 1013417